Theta_e
299 300 303 302 303 294 296 298 294 296 300 299 296 298 296 293 290 289 294 297 296 300 307 309 308 312 311 313 315 316 316 318 321 322 324 326 328 330 332 334 335 337 339 341 342 343 343 344 344 345 346 348 348 348 347 347 348 348 348 349 348 348 348
300 300 304 303 304 300 296 293 297 300 302 299 297 290 288 287 286 287 293 295 294 297 295 304 308 308 310 310 312 315 316 318 319 322 324 326 327 330 333 335 336 338 339 341 342 344 344 344 345 346 347 348 349 349 348 347 348 347 347 348 348 347 347
299 301 301 300 302 303 303 296 301 300 293 294 292 292 287 286 286 286 289 293 294 296 298 300 305 308 309 309 311 313 314 317 319 321 323 326 328 329 331 333 335 337 338 340 342 343 344 345 346 347 348 349 349 349 349 349 348 348 348 349 349 348 347
299 299 298 295 298 301 301 301 299 302 298 292 293 294 291 293 285 286 287 290 291 298 298 302 304 308 309 310 310 311 315 317 319 320 322 324 326 328 330 333 335 337 339 340 342 343 343 344 345 347 347 348 348 349 349 349 349 349 349 348 349 346 345
298 294 295 297 299 293 295 297 294 298 301 298 296 296 292 292 287 286 285 287 289 295 301 303 306 307 310 311 311 313 315 317 319 321 322 324 326 328 330 332 334 336 338 340 342 343 344 345 346 347 347 347 348 349 348 349 348 348 348 348 348 347 344
292 292 296 299 299 299 296 297 296 296 293 295 292 291 294 291 292 284 285 288 289 299 306 307 306 308 310 312 313 313 315 317 318 320 322 325 326 328 330 332 333 335 337 339 341 343 344 344 344 345 346 347 347 347 348 349 349 348 348 348 347 347 344
296 297 300 300 300 301 300 301 298 299 297 295 292 287 289 292 293 294 290 289 293 300 304 308 309 307 311 314 314 314 315 317 317 320 323 325 327 328 330 331 333 335 337 338 340 341 342 343 344 344 345 346 346 347 348 348 348 348 349 348 348 347 342
297 300 300 301 300 300 299 298 298 298 297 297 296 294 292 294 291 293 292 290 288 297 307 309 309 309 310 314 315 315 316 317 318 320 322 324 325 327 329 331 333 335 336 338 338 339 341 342 343 343 344 345 346 347 347 348 348 348 349 348 347 344 339
292 294 296 297 298 299 295 296 296 297 298 298 296 295 293 295 292 294 291 287 290 299 309 308 310 310 312 312 315 316 316 317 318 320 321 323 325 326 327 329 331 333 334 335 337 338 339 341 342 343 344 344 345 346 347 347 348 349 349 349 346 342 337
284 285 287 289 293 294 293 296 296 297 299 296 296 295 295 290 292 294 291 289 292 299 302 304 307 308 309 311 314 317 317 317 318 319 321 322 324 325 326 328 328 330 333 334 336 337 339 340 341 342 343 344 344 345 346 348 348 348 348 348 345 340 336
291 292 291 294 298 293 296 294 298 297 297 299 299 294 292 293 288 293 289 295 297 300 304 304 305 307 309 310 312 315 316 317 318 320 321 322 323 324 325 326 328 329 330 332 334 336 337 339 340 341 341 342 343 344 345 346 348 348 348 346 342 337 335
298 298 297 297 299 296 295 296 296 297 298 297 297 295 295 294 293 289 292 293 300 300 303 305 306 305 307 310 312 315 316 317 318 320 321 328 322 324 324 325 325 327 329 330 332 333 335 337 339 340 341 342 342 343 344 345 347 347 346 343 338 337 335
298 300 299 299 298 297 296 296 297 296 297 296 297 297 297 297 297 295 296 295 300 302 304 307 308 308 309 310 313 316 318 319 320 319 319 320 321 321 322 323 325 325 326 328 330 331 333 335 336 338 339 340 341 342 343 345 346 346 345 341 337 336 335
298 298 298 298 298 298 298 297 296 296 296 296 298 299 299 299 299 300 300 298 301 304 306 307 309 310 311 311 314 316 318 317 318 318 318 319 320 321 321 322 323 325 326 327 329 330 331 333 335 336 337 338 339 341 342 343 345 344 342 339 336 335 335
296 298 298 297 297 298 298 299 298 297 296 296 297 298 298 301 299 300 300 299 301 305 306 308 309 309 310 310 313 314 316 317 318 318 318 319 320 320 322 322 323 324 325 326 327 329 330 331 333 335 336 338 339 340 341 343 344 341 340 337 336 335 335
292 296 296 297 296 296 296 297 298 297 296 294 295 296 298 298 298 298 298 297 299 305 307 310 308 309 310 310 311 313 314 315 318 318 318 318 319 320 320 321 322 323 324 325 326 328 329 331 332 333 334 335 337 338 340 342 342 339 338 336 335 335 335
290 296 296 296 295 295 292 294 296 297 298 298 297 300 304 302 301 298 297 297 304 307 309 308 307 307 309 309 309 311 313 315 317 318 318 318 319 320 320 322 324 324 325 326 327 328 330 331 332 333 335 335 336 338 340 342 341 337 337 335 335 335 335
289 294 294 295 292 287 288 295 298 299 298 297 298 298 300 303 303 300 301 302 305 306 307 307 307 306 308 311 311 314 316 315 316 317 318 319 320 320 321 323 325 325 327 328 328 329 331 333 335 336 337 336 337 339 341 340 338 337 336 335 335 335 335
291 293 294 291 287 288 296 303 305 303 301 301 301 304 306 306 306 307 305 304 305 307 309 309 310 311 312 312 313 314 315 318 318 319 319 320 322 322 323 325 327 328 329 330 330 330 330 332 334 335 335 337 337 338 338 338 338 336 335 335 334 334 334
292 292 290 285 284 294 304 305 307 313 306 305 305 304 306 307 306 306 305 305 305 306 308 311 310 310 313 312 313 315 317 319 319 319 320 321 323 324 326 327 329 329 330 331 332 332 334 333 334 335 336 336 335 336 337 337 337 336 335 334 334 334 333
291 289 289 289 296 301 304 304 306 306 303 304 302 298 302 307 309 306 305 306 308 308 310 310 311 311 312 310 311 312 314 316 318 321 322 323 325 326 327 329 330 331 333 334 334 335 334 334 334 335 334 334 334 334 335 335 336 335 334 333 333 333 334
291 289 289 292 293 290 295 301 309 310 309 311 308 302 303 308 310 310 306 306 307 308 309 310 310 312 310 307 310 312 315 317 316 318 320 320 322 322 324 326 328 331 333 334 335 335 333 333 333 333 332 333 333 333 333 334 334 333 333 333 333 333 333
292 292 288 286 287 293 299 304 307 311 311 312 309 303 300 307 310 312 307 307 307 309 309 309 309 308 303 303 308 313 318 325 323 325 328 330 330 329 327 328 330 332 333 334 333 332 332 331 329 331 331 332 332 332 332 333 333 333 332 333 333 333 334
294 289 287 289 293 297 305 307 309 311 311 309 304 295 296 304 310 311 310 309 309 308 308 309 308 306 305 305 312 314 328 329 330 329 330 330 331 331 331 331 331 332 334 334 331 330 330 328 329 330 331 331 332 331 332 332 332 332 332 333 334 335 335
294 296 291 292 297 305 309 308 310 311 312 304 296 291 298 309 311 313 311 310 311 313 313 312 309 310 310 311 317 326 330 331 331 332 332 332 332 331 331 332 335 330 329 329 328 328 327 328 329 330 331 331 330 331 330 330 330 332 334 334 334 334 334
293 290 291 292 294 302 308 310 311 312 306 296 293 300 307 311 312 314 314 314 315 315 315 314 313 314 321 326 328 329 329 329 329 331 332 332 333 333 336 335 331 328 328 327 327 327 327 329 330 330 330 330 329 329 329 329 331 332 333 333 333 333 333
296 292 292 292 291 303 311 310 309 310 299 299 304 311 313 316 312 312 313 315 316 319 318 320 322 324 326 327 327 327 328 329 328 329 330 330 330 329 329 329 333 329 326 325 325 326 328 329 329 329 330 330 330 330 328 330 330 331 331 332 332 332 332
293 290 290 291 301 306 311 310 306 309 310 310 311 314 313 316 315 315 315 316 317 320 321 321 321 323 323 324 325 327 327 327 327 327 327 327 328 329 331 330 330 329 325 326 325 326 327 327 328 329 330 329 329 329 328 328 329 331 330 330 331 331 333
298 297 298 305 309 309 311 312 312 314 316 317 317 316 316 316 317 318 319 319 320 321 321 321 322 322 323 324 325 325 325 326 326 326 327 327 328 328 328 330 333 328 327 325 325 325 326 327 327 328 329 330 331 327 326 329 329 329 329 329 330 330 329
310 309 309 312 311 310 310 311 314 315 316 317 318 318 318 318 319 321 321 321 322 322 322 321 321 321 321 323 324 325 325 326 326 328 327 327 328 328 328 329 332 329 327 326 325 325 325 326 327 328 328 330 329 327 328 330 329 329 329 329 329 328 329
302 298 309 309 309 312 312 309 311 312 313 314 314 313 313 313 314 315 317 318 319 321 323 322 321 322 323 323 323 323 323 324 323 325 326 327 327 328 328 329 332 328 327 325 325 325 325 326 326 327 327 329 328 328 329 329 329 329 329 329 329 329 329
301 303 310 312 313 313 312 312 312 310 310 312 312 313 313 313 313 313 313 313 312 314 313 314 315 317 320 321 322 323 323 324 324 324 325 326 327 326 327 330 330 327 326 325 325 325 325 325 327 329 329 329 329 329 329 329 329 329 330 330 329 328 328
307 310 312 312 313 313 313 313 311 310 311 311 312 313 315 314 313 313 313 314 314 314 314 313 314 314 315 319 321 324 325 324 325 325 325 325 325 325 326 328 328 326 326 326 326 325 325 326 328 329 329 329 329 329 329 329 329 329 329 330 328 327 327
302 303 305 309 304 302 309 313 316 313 312 311 311 312 313 313 312 312 312 313 315 315 317 317 317 316 317 318 319 321 323 324 324 324 325 324 324 324 327 327 326 327 328 326 326 326 325 326 329 329 328 328 329 329 329 329 330 330 330 328 327 327 327
301 307 310 308 308 308 310 310 313 314 313 310 308 308 308 308 309 311 312 311 311 311 312 315 316 316 317 318 321 321 323 324 325 324 324 325 325 326 327 325 324 325 325 328 326 326 325 327 329 329 328 328 328 329 329 329 330 330 329 328 327 327 326
306 308 307 308 307 305 307 309 311 311 311 310 309 309 309 309 310 310 310 310 310 309 311 311 313 315 316 317 317 316 317 320 325 326 325 325 325 327 328 326 325 325 325 326 326 326 326 328 329 328 328 328 328 328 328 328 328 328 328 328 326 324 324
304 306 307 307 306 306 307 308 310 312 316 313 311 311 312 312 312 311 310 311 311 310 309 309 310 312 314 315 316 316 316 317 324 330 330 331 328 327 327 327 325 326 326 326 326 326 326 329 329 328 327 327 328 328 328 328 327 325 325 326 324 324 324
Wind_Speed
5 7 6 5 9 8 4 5 6 7 6 8 2 2 0 3 2 5 3 2 5 8 9 8 6 5 9 7 9 9 10 9 11 12 14 14 15 15 15 15 15 16 13 13 14 14 13 14 13 15 16 16 17 15 14 15 14 11 13 13 12 10 10
7 5 8 7 8 8 5 5 8 2 3 4 5 6 1 1 5 5 3 8 2 4 6 5 4 6 13 6 10 11 6 6 11 13 14 16 17 17 17 16 16 15 16 17 16 15 16 17 17 17 17 16 14 14 14 15 13 14 14 13 12 12 12
5 2 4 5 5 4 10 6 8 8 4 6 3 3 2 1 2 2 2 3 3 8 7 3 6 11 15 13 11 6 7 11 14 13 14 15 15 14 14 15 13 12 14 14 15 16 17 17 17 16 15 13 11 12 13 14 16 17 13 9 9 9 10
3 5 7 14 11 1 3 6 4 0 5 3 4 7 5 5 5 2 5 2 6 7 8 11 11 13 14 14 9 9 14 16 15 14 14 15 14 14 14 13 14 15 16 16 18 18 18 17 17 16 15 13 15 15 14 13 12 9 9 12 12 12 11
1 6 5 13 13 7 3 4 4 2 0 3 4 1 4 5 6 6 4 3 5 8 9 10 13 12 15 14 14 12 12 15 16 15 12 12 14 14 14 15 15 16 15 15 16 15 16 15 12 10 10 14 15 13 13 14 14 14 14 13 12 12 11
5 7 7 7 7 9 8 10 9 8 6 4 6 9 2 2 3 4 4 8 6 9 5 11 12 13 13 13 14 13 13 15 14 10 11 13 13 14 15 16 16 15 14 14 14 13 10 9 11 13 14 14 14 15 16 16 15 13 14 13 14 13 10
10 9 8 4 4 9 10 12 10 11 7 5 5 6 5 1 2 5 4 1 7 8 6 11 12 6 8 9 8 11 10 10 7 9 11 12 15 15 16 16 14 14 14 14 15 16 17 18 18 18 15 15 16 17 16 14 15 16 15 14 11 9 9
4 6 5 2 4 3 1 4 2 9 11 10 9 7 8 7 1 1 1 2 6 4 2 4 4 5 5 6 8 13 11 5 6 8 10 11 10 12 13 12 11 12 11 12 11 12 13 13 12 13 14 15 15 14 15 14 15 16 14 11 11 10 10
3 5 5 5 1 3 4 4 5 6 3 5 1 4 2 6 7 9 7 8 3 5 2 2 3 5 7 9 10 7 9 7 8 9 9 10 12 11 10 11 11 9 10 12 13 14 14 14 14 14 14 14 14 13 13 14 15 15 12 9 10 11 12
9 8 12 11 11 9 2 2 4 6 9 6 4 5 2 8 3 4 4 4 8 7 4 3 3 6 6 7 7 7 7 7 7 7 9 10 10 12 11 9 8 13 14 12 11 12 12 13 14 14 14 14 14 13 14 14 13 10 11 10 10 11 12
12 11 7 6 5 3 7 4 8 6 6 12 9 6 6 11 5 8 8 8 5 4 6 6 7 5 9 9 7 10 11 10 9 7 9 11 12 11 12 13 11 6 7 12 13 13 14 14 13 13 14 14 13 13 13 13 11 9 9 10 10 12 13
16 15 13 9 8 7 7 8 7 9 9 8 10 9 10 6 9 8 6 4 6 10 9 10 9 7 5 6 8 9 8 8 10 12 10 7 5 4 4 5 8 13 13 11 12 13 12 13 12 11 11 11 12 12 13 11 8 9 9 11 13 14 15
16 15 14 9 6 7 6 8 9 10 10 10 13 10 11 10 9 12 8 8 8 9 11 14 15 12 12 14 16 17 16 9 4 4 6 10 12 8 9 9 9 9 10 11 11 11 12 10 11 12 10 10 9 10 10 8 10 12 11 12 13 14 15
13 13 11 6 10 6 4 6 7 7 8 11 13 14 11 15 9 10 12 12 16 12 12 12 14 12 10 6 2 1 3 7 10 9 8 11 11 11 11 10 10 9 9 9 9 8 7 9 11 9 10 10 11 11 9 7 9 8 11 12 13 13 14
10 13 11 7 9 10 12 11 8 8 7 9 12 10 5 6 7 4 2 8 12 9 7 9 2 3 3 4 8 12 11 7 10 12 13 12 11 10 9 8 8 8 7 6 6 8 9 9 10 10 9 8 6 6 6 8 9 10 12 12 13 14 14
6 5 9 12 8 9 11 14 13 12 7 6 4 5 6 6 8 4 3 4 10 10 5 2 2 4 6 9 10 8 7 8 8 11 13 10 8 8 8 8 7 7 8 8 9 9 8 7 6 6 6 5 5 7 7 9 10 10 11 12 13 14 14
6 9 7 10 6 2 6 11 13 12 11 8 5 4 5 8 7 8 6 10 11 13 7 7 4 8 10 8 6 5 5 7 11 13 9 7 7 9 8 9 10 10 10 9 8 7 6 8 7 7 8 9 11 11 11 10 9 11 12 13 13 14 13
5 9 5 2 4 8 9 8 6 10 12 11 9 7 9 9 10 9 9 9 2 2 5 9 8 9 11 15 11 7 12 13 10 7 8 9 7 5 6 7 8 6 6 6 7 9 10 11 13 11 11 12 11 8 8 8 11 11 12 12 13 14 13
6 2 5 3 8 9 7 3 5 8 12 16 17 5 1 3 4 3 6 8 7 8 8 12 11 5 3 4 4 3 4 7 8 11 10 9 9 10 8 7 7 9 10 9 9 8 8 7 5 5 7 6 4 6 8 10 9 11 11 12 12 12 13
1 1 3 3 5 3 2 2 2 2 4 5 12 3 1 2 4 5 6 8 7 6 6 1 3 7 5 5 6 1 1 3 9 10 9 9 9 9 9 10 9 10 10 11 11 9 5 6 6 7 7 6 7 7 7 9 9 9 10 11 11 10 11
4 3 4 6 2 1 1 2 1 2 2 3 7 8 2 1 1 4 4 3 2 3 1 4 6 6 7 6 5 5 3 2 1 4 8 12 11 10 10 10 11 8 7 6 6 6 7 7 8 7 6 7 7 7 8 7 8 9 9 11 11 12 11
3 3 1 1 1 3 5 3 1 1 2 1 2 4 1 3 1 2 3 4 6 5 4 5 5 5 10 6 1 5 7 3 3 4 3 2 2 4 7 5 5 6 6 6 6 8 9 6 5 6 8 8 8 8 7 7 8 9 10 11 10 10 11
1 1 4 4 5 5 6 2 3 3 2 1 4 5 2 1 2 1 5 3 4 6 12 6 4 7 5 3 2 4 5 4 6 9 6 6 7 6 3 6 9 7 6 7 7 7 8 8 5 6 8 9 8 8 7 8 8 9 9 8 9 12 11
2 3 3 2 2 2 3 4 4 5 4 2 4 6 5 1 6 2 4 1 2 8 9 9 8 9 9 6 1 3 2 6 5 5 8 8 7 7 7 8 6 6 6 7 7 6 6 5 6 7 8 8 8 8 6 5 6 7 9 9 8 6 6
4 1 1 2 1 3 2 4 8 8 4 3 6 7 7 1 2 1 5 5 2 1 3 7 9 2 7 6 2 1 2 10 10 9 8 7 7 9 9 8 6 8 8 9 9 8 6 5 4 4 4 5 5 4 4 5 6 5 4 4 6 7 7
5 3 2 3 3 4 4 8 7 4 2 4 7 4 0 1 1 1 6 10 7 9 8 7 8 5 5 8 7 8 9 10 6 7 7 9 11 9 8 6 7 7 8 9 9 8 6 6 6 5 6 6 5 5 5 5 5 4 5 6 6 7 8
3 2 2 2 4 3 9 15 4 4 2 2 1 2 4 1 5 7 5 8 7 13 11 9 10 9 7 7 8 8 6 9 8 7 7 8 8 6 6 7 6 7 8 8 8 6 5 6 6 6 7 7 5 5 5 5 4 5 6 6 7 7 8
3 2 1 0 2 9 13 4 5 3 0 4 1 1 4 3 3 6 8 7 6 11 13 11 11 9 9 8 8 10 9 8 7 7 7 7 6 6 6 6 5 7 7 6 7 7 6 6 6 6 6 6 5 5 4 3 5 6 7 7 7 7 6
1 2 3 4 3 5 7 6 6 3 5 6 5 6 4 6 8 4 8 8 7 9 12 12 12 12 9 8 8 9 6 7 7 6 4 4 4 3 5 5 4 6 7 8 7 8 6 6 5 5 5 7 5 6 4 5 7 7 7 7 7 7 8
4 2 0 5 5 8 10 7 4 9 9 7 7 9 12 10 8 8 8 7 9 9 9 14 9 9 8 11 9 9 8 7 6 5 4 3 3 4 4 5 6 7 7 7 8 8 6 5 5 5 5 6 7 6 5 6 7 8 8 9 8 9 9
7 1 6 9 8 8 11 8 7 10 8 6 7 10 9 8 10 12 12 11 11 10 11 12 11 9 8 9 7 6 6 6 5 5 4 5 3 1 1 2 5 6 7 7 7 8 7 4 5 5 6 5 7 7 7 6 7 7 8 9 9 8 8
6 10 8 1 7 6 3 5 3 8 7 9 7 8 9 9 9 10 10 9 11 10 12 9 10 7 6 8 6 4 2 1 1 1 1 2 2 3 1 1 3 5 6 7 7 8 8 7 6 6 6 6 6 6 6 6 6 7 7 7 8 7 8
6 12 5 8 10 8 9 8 3 5 6 7 8 9 8 5 10 11 12 11 8 9 8 8 8 9 7 4 3 3 2 2 2 2 0 1 1 1 2 2 3 5 6 7 7 8 7 6 6 6 6 5 5 6 5 5 6 7 7 7 7 7 7
9 13 12 16 16 7 5 3 5 5 4 9 10 10 10 8 8 8 13 11 11 11 11 10 10 7 5 6 4 6 3 3 4 3 2 1 3 4 4 5 6 5 5 7 7 7 6 6 6 6 6 5 5 6 6 7 8 9 9 9 9 9 8
5 3 12 3 4 13 2 2 1 1 3 10 13 12 10 9 8 8 11 13 14 13 11 8 7 5 7 7 7 9 8 6 3 1 1 3 3 2 2 3 3 3 4 5 7 7 7 6 6 6 6 6 6 6 7 8 9 10 10 9 9 9 7
6 7 5 2 4 8 6 6 4 4 6 13 13 12 12 11 11 12 12 9 9 8 8 7 5 5 6 6 8 9 8 9 9 7 6 3 2 1 0 1 3 4 5 6 7 8 7 7 6 6 7 7 7 8 8 8 8 9 9 9 9 7 5
4 5 8 10 13 12 9 9 8 8 6 10 12 11 11 13 13 13 12 10 7 8 8 9 8 7 8 7 8 7 6 7 8 8 6 4 4 2 1 2 4 5 5 5 6 7 7 7 8 8 8 8 7 8 7 6 5 6 6 5 5 5 4
Wind_Direction
188 197 154 194 151 203 223 125 200 213 168 150 88 48 139 114 47 249 190 316 290 307 313 279 327 317 276 241 228 217 215 177 168 182 191 193 195 198 199 203 203 201 195 194 192 190 191 194 194 197 198 197 199 197 197 201 203 197 195 197 192 189 187
250 200 176 181 198 143 110 178 222 140 98 106 145 213 356 92 195 256 129 194 224 107 273 303 257 254 258 260 241 223 202 152 186 196 191 193 195 198 198 201 202 197 195 192 192 193 193 195 198 200 202 200 200 198 199 200 199 202 203 194 191 189 190
215 165 169 273 269 189 181 194 175 152 222 243 311 121 209 124 234 258 273 252 257 194 232 312 245 223 243 247 240 207 179 190 203 201 201 196 194 193 195 200 197 196 197 196 193 195 197 199 202 202 202 197 198 202 204 201 203 206 199 188 189 194 195
206 143 150 220 217 259 26 82 134 120 124 160 148 198 173 161 240 120 288 87 219 212 221 198 225 220 227 236 241 218 205 202 203 201 199 190 189 195 194 196 198 198 198 195 194 196 196 199 200 202 196 194 200 203 200 205 209 199 182 189 191 195 193
45 215 200 212 200 177 170 171 183 187 129 223 119 69 136 181 176 187 181 251 273 249 212 189 215 216 219 215 222 224 214 213 210 203 188 185 190 192 193 197 199 199 198 196 198 199 202 201 203 197 193 199 206 199 202 204 202 197 196 194 190 197 187
212 236 230 188 179 169 175 177 199 167 140 167 214 251 38 111 147 217 163 237 259 256 179 204 213 218 214 214 209 219 221 216 211 189 185 185 189 193 194 199 199 197 196 195 197 198 197 191 195 195 200 201 200 200 204 203 202 200 199 195 196 193 185
227 222 236 206 183 178 187 175 205 184 182 147 161 216 254 16 268 112 160 149 271 242 204 203 213 205 234 232 211 222 227 223 206 193 191 191 190 188 197 200 198 196 192 190 191 191 190 193 197 198 199 200 202 205 204 201 200 204 200 200 191 175 171
300 280 295 195 182 135 273 277 218 167 194 189 193 185 179 179 187 172 36 221 250 285 222 227 233 225 234 232 210 220 227 211 191 186 187 190 192 202 204 198 195 193 187 185 186 189 195 199 201 201 202 205 207 207 204 201 204 205 200 191 180 170 170
241 274 331 295 348 172 191 198 200 186 181 185 156 97 88 206 206 177 155 226 274 271 345 306 205 231 226 231 240 228 223 211 191 190 193 194 199 199 196 193 191 181 177 183 190 192 194 198 201 201 204 207 207 208 204 204 209 205 195 181 173 173 176
215 214 213 218 233 214 242 225 188 180 173 154 114 209 162 212 268 148 172 233 247 272 315 292 218 195 227 243 236 233 228 210 196 193 194 197 195 199 194 186 173 186 189 187 187 191 195 200 201 201 204 206 207 207 208 207 209 193 187 180 172 165 174
215 218 209 237 132 110 195 226 188 204 196 178 174 121 157 208 208 186 226 180 216 261 249 257 255 200 210 220 218 214 215 218 205 195 199 199 196 194 188 188 189 168 173 189 191 192 197 199 200 202 204 206 206 207 210 208 202 186 179 169 160 165 172
216 209 210 199 175 186 202 194 212 200 183 177 173 176 219 162 123 233 262 213 179 226 227 227 236 240 243 227 219 227 235 218 198 199 197 188 193 189 168 165 170 186 189 186 189 194 196 200 201 206 207 206 207 205 211 204 182 171 172 165 166 173 178
225 223 222 186 186 192 191 200 197 198 202 172 185 209 207 143 198 220 236 180 196 225 215 214 216 205 203 202 204 204 207 207 176 135 163 190 202 187 183 190 187 183 185 188 192 192 198 196 198 204 204 206 207 211 211 187 180 182 169 165 171 177 183
235 236 232 185 193 220 222 205 205 200 177 193 197 209 196 185 209 211 209 179 207 209 214 218 224 214 205 204 183 90 177 198 188 186 187 199 200 191 189 191 190 187 189 188 189 184 184 191 200 199 203 205 205 208 202 173 178 169 160 171 172 180 187
240 236 229 212 198 208 229 236 231 221 190 193 205 215 210 209 246 272 186 185 228 246 217 220 256 79 101 124 175 197 205 181 178 187 197 202 198 192 195 184 181 182 181 174 164 176 190 194 197 201 204 206 204 199 173 171 174 169 168 170 177 180 187
271 229 215 225 208 211 226 242 238 232 214 212 202 207 197 159 211 201 118 194 241 258 232 186 149 136 158 191 196 194 193 192 189 194 203 198 190 193 191 178 167 170 173 172 178 187 190 188 185 192 196 187 178 194 173 176 172 167 171 173 178 185 185
258 250 192 215 189 168 262 249 240 228 220 209 213 206 169 202 176 152 185 229 222 224 187 162 218 187 203 209 200 193 203 197 191 198 195 184 190 200 180 172 179 180 179 179 176 171 168 176 179 189 181 183 199 194 186 181 157 170 176 178 181 185 184
238 252 205 151 122 215 232 229 201 198 209 199 207 209 198 203 157 198 205 227 255 84 150 191 202 196 205 206 209 196 178 176 182 179 182 192 189 175 176 179 171 164 153 158 169 173 178 188 193 193 187 195 204 187 171 155 167 175 175 183 184 187 185
262 322 85 126 217 234 239 268 238 209 203 197 203 194 169 197 226 276 274 256 233 216 206 203 203 200 13 34 102 136 159 155 167 176 179 174 170 174 168 166 164 166 172 176 182 189 199 191 177 161 193 200 154 152 160 167 173 171 180 180 187 188 188
46 50 139 202 239 234 254 237 161 91 117 134 104 64 238 232 217 194 220 236 233 230 232 160 132 128 131 64 27 11 202 173 174 169 178 172 158 165 180 169 181 177 176 180 182 190 171 152 170 181 183 162 157 164 160 168 172 177 176 182 187 185 188
219 221 182 209 288 35 122 114 40 58 137 182 166 158 212 209 219 190 213 250 204 163 167 153 121 131 104 67 28 22 22 352 349 189 170 165 174 174 182 179 181 179 170 155 153 137 152 164 165 174 152 149 148 147 162 171 168 173 175 184 188 188 186
121 131 59 38 111 167 256 233 256 176 147 192 197 107 135 218 260 196 174 204 155 132 123 126 142 120 86 97 71 338 352 20 78 48 71 55 105 128 128 92 103 117 118 117 130 141 144 147 149 139 144 146 147 156 166 162 169 177 186 192 184 181 183
42 228 153 194 155 234 202 265 311 11 52 288 176 78 87 267 318 8 143 191 167 161 138 141 116 96 107 189 260 321 327 36 77 89 71 80 71 62 66 121 131 131 128 128 132 127 130 129 133 133 137 140 147 164 171 173 177 181 189 182 179 187 184
264 157 111 216 209 104 353 310 335 329 329 243 69 101 196 281 327 292 98 294 176 152 129 115 84 125 145 185 269 324 5 71 68 94 96 81 78 69 77 66 77 102 114 108 94 90 91 104 123 135 135 143 157 170 174 155 172 183 191 195 190 164 147
285 222 212 317 308 277 284 319 317 315 287 87 102 175 224 283 326 244 120 123 101 328 127 126 113 170 155 172 164 106 155 83 64 63 73 88 84 79 66 61 64 67 60 65 66 66 66 74 77 87 99 99 90 83 109 152 187 188 163 133 144 155 151
297 258 135 204 236 238 301 314 317 275 107 142 199 227 231 163 140 80 110 97 85 91 69 71 88 97 74 106 107 91 76 87 90 81 82 75 66 62 68 71 74 75 67 64 65 58 65 83 84 93 102 101 100 116 126 173 185 144 131 128 131 143 159
312 319 72 87 131 224 20 320 348 25 100 229 230 53 5 338 128 101 70 86 94 96 85 75 89 81 66 70 82 86 84 81 72 63 65 72 85 77 74 63 52 73 70 71 76 92 95 91 89 95 105 110 121 127 167 180 139 128 124 128 138 145 156
236 342 28 159 280 295 318 341 88 328 34 162 178 44 70 353 67 92 96 61 82 97 102 103 87 87 86 60 59 67 57 63 61 53 45 46 47 54 53 71 83 87 90 89 83 76 74 81 91 98 115 121 130 145 165 144 131 125 128 134 137 142 147
115 288 246 271 286 320 324 19 74 70 45 51 54 76 70 64 36 341 74 79 74 87 97 86 85 76 70 78 60 66 37 38 41 49 61 92 83 72 83 82 81 69 83 86 81 74 72 87 95 108 122 131 136 145 176 156 142 137 131 133 137 140 148
182 183 52 313 357 2 351 10 50 78 70 44 49 59 65 39 39 27 55 48 57 55 70 86 61 70 79 74 60 56 46 44 22 14 12 20 50 61 84 83 87 97 94 94 96 97 84 101 112 127 135 140 144 172 175 161 150 143 140 141 145 153 158
95 327 332 0 344 356 354 359 35 68 68 71 77 71 67 62 53 49 34 40 44 51 56 72 81 63 57 64 48 40 42 36 22 13 356 329 346 0 48 108 110 104 110 107 118 120 120 140 137 135 138 145 156 161 169 161 150 147 147 150 154 158 161
137 173 159 139 12 353 343 323 352 54 50 59 49 78 80 74 66 71 58 35 31 33 46 42 62 59 59 75 71 60 63 25 337 317 325 309 335 323 338 74 108 110 115 124 137 142 147 162 146 139 146 161 167 167 165 166 149 144 145 150 150 148 151
68 74 96 124 85 20 342 330 6 83 82 70 60 59 61 48 66 65 66 69 67 51 43 19 24 32 9 21 65 86 21 351 316 298 250 192 235 245 170 157 141 156 150 147 154 151 153 159 142 143 157 169 174 171 162 143 136 132 131 128 132 145 157
152 159 181 158 129 163 213 199 305 336 80 98 92 80 70 67 72 73 78 69 72 66 52 48 47 38 359 12 9 36 29 340 325 330 0 167 155 183 193 167 153 143 140 137 144 144 153 158 153 154 160 165 165 163 147 145 144 144 149 151 155 165 176
184 131 146 352 81 106 95 104 356 3 84 82 77 70 75 67 58 58 68 67 58 57 52 49 62 51 45 14 31 47 33 13 345 283 27 13 6 26 76 80 96 122 139 143 142 154 162 165 162 159 160 160 160 161 157 159 161 162 160 161 174 183 187
33 66 69 38 78 101 84 54 52 45 75 83 80 80 78 73 63 59 58 49 63 62 63 56 51 58 48 32 42 44 29 22 16 4 357 4 2 2 109 154 175 166 166 162 165 163 165 165 164 161 166 172 173 173 175 178 171 168 173 168 174 182 161
106 80 81 85 91 80 76 72 54 49 51 82 81 72 73 71 65 61 55 44 20 51 52 40 29 30 40 37 42 41 34 21 21 13 3 351 331 334 283 215 210 207 189 165 161 159 161 168 168 172 174 182 184 186 183 172 160 155 160 164 162 144 154